CW3403 Weather Reports


Display with metric or nautical units.
time (UTC)temp
F
wind
direction
speed
MPH
gust
MPH
rain 1hr
in
rain 24hr
in
rain mn
in
humidity
%
barometer
mb
20190419101805 63 232 0.0 5.0 0.00 0.00 0.00 75 997.6
20190419101305 63 232 0.0 5.0 0.00 0.00 0.00 75 997.6
20190419100806 64 232 2.0 6.0 0.00 0.00 0.00 75 997.0
20190419100306 64 268 0.0 8.0 0.00 0.00 0.00 74 997.0
20190419095806 64 240 3.0 10.0 0.00 0.00 0.00 73 997.0
20190419095306 65 262 1.0 10.0 0.00 0.00 0.00 72 997.0
20190419094805 65 214 2.0 10.0 0.00 0.00 0.00 71 997.0
20190419094306 66 267 3.0 7.0 0.00 0.00 0.00 70 997.0
20190419093806 66 257 0.0 3.0 0.00 0.00 0.00 68 997.0
20190419093305 66 228 0.0 6.0 0.00 0.00 0.00 67 996.8
20190419092805 66 215 0.0 6.0 0.00 0.00 0.00 67 997.0
20190419092306 66 219 0.0 5.0 0.00 0.00 0.00 67 997.0
20190419091805 67 215 1.0 7.0 0.00 0.00 0.00 66 996.9
20190419091306 67 196 1.0 7.0 0.00 0.00 0.00 66 996.8
20190419090806 67 193 1.0 7.0 0.00 0.00 0.00 66 996.8
20190419090306 67 215 1.0 12.0 0.00 0.00 0.00 64 997.0
20190419085806 68 203 5.0 12.0 0.00 0.00 0.00 64 997.2
20190419085305 68 206 5.0 12.0 0.00 0.00 0.00 63 996.9
20190419084805 68 183 3.0 12.0 0.00 0.00 0.00 61 997.2
20190419084305 69 174 4.0 12.0 0.00 0.00 0.00 60 997.7
20190419083806 69 202 2.0 16.0 0.00 0.00 0.00 59 997.7
20190419083307 69 169 1.0 16.0 0.00 0.00 0.00 58 997.8
20190419082805 69 197 2.0 20.0 0.00 0.00 0.00 57 997.9
20190419082306 70 178 5.0 20.0 0.00 0.00 0.00 55 998.3
20190419081806 70 196 3.0 13.0 0.00 0.00 0.00 55 998.3
20190419081305 70 177 4.0 16.0 0.00 0.00 0.00 54 998.3
20190419080805 69 156 3.0 16.0 0.00 0.00 0.00 54 998.3
20190419080305 69 179 1.0 6.0 0.00 0.00 0.00 55 998.3
20190419075805 70 179 1.0 6.0 0.00 0.00 0.00 54 998.3
20190419075306 70 197 0.0 6.0 0.00 0.01 0.00 53 998.3
20190419074805 70 127 1.0 6.0 0.00 0.01 0.00 53 998.4
20190419074305 69 165 1.0 6.0 0.00 0.01 0.00 53 998.4
20190419073806 69 174 0.0 6.0 0.00 0.01 0.00 54 998.5
20190419073305 69 171 1.0 6.0 0.00 0.01 0.00 54 998.5
20190419072805 69 173 1.0 3.0 0.00 0.01 0.00 55 998.6
20190419072306 69 179 0.0 2.0 0.00 0.01 0.00 55 999.0
20190419071305 68 189 0.0 8.0 0.00 0.01 0.00 55 999.0
20190419070805 68 169 0.0 0.0 0.00 0.01 0.00 54 999.1
20190419070305 68 169 0.0 0.0 0.00 0.01 0.00 54 999.1
20190419065805 68 169 0.0 1.0 0.00 0.01 0.00 54 999.1
20190419065305 68 169 0.0 1.0 0.00 0.01 0.00 54 999.1
20190419064805 68 193 0.0 0.0 0.00 0.01 0.00 54 999.0
20190419064305 68 193 0.0 0.0 0.00 0.01 0.00 54 999.0
20190419063805 68 193 0.0 0.0 0.00 0.01 0.00 54 999.2
20190419063305 68 195 0.0 0.0 0.00 0.01 0.00 54 999.5
20190419062805 68 195 0.0 0.0 0.00 0.01 0.00 54 999.5
20190419062305 68 195 0.0 0.0 0.00 0.01 0.00 53 999.5
20190419061805 68 195 0.0 0.0 0.00 0.01 0.00 53 999.6
20190419061305 68 195 0.0 0.0 0.00 0.01 0.00 52 999.8
20190419060805 68 195 0.0 0.0 0.00 0.01 0.00 52 999.9
20190419060305 68 195 0.0 0.0 0.00 0.01 0.00 52 1000.0
20190419055806 68 195 0.0 0.0 0.00 0.01 0.00 51 999.9
20190419055305 69 195 0.0 0.0 0.00 0.01 0.00 51 1000.1
20190419054805 69 195 0.0 0.0 0.00 0.01 0.00 50 1000.1
20190419054305 69 195 0.0 0.0 0.00 0.01 0.00 51 1000.2
20190419053806 69 195 0.0 0.0 0.00 0.01 0.00 50 1000.2
20190419053305 69 195 0.0 6.0 0.00 0.01 0.00 49 1000.4
20190419052805 69 195 0.0 6.0 0.00 0.01 0.00 49 1000.4
20190419052307 69 179 0.0 2.0 0.00 0.01 0.00 49 1000.5
20190419051806 69 157 0.0 0.0 0.00 0.01 0.00 50 1000.5
20190419051306 69 145 0.0 2.0 0.00 0.01 0.00 50 1000.6
20190419050805 70 143 0.0 8.0 0.00 0.01 0.00 51 1000.6
20190419050305 70 128 1.0 8.0 0.00 0.01 0.00 49 1000.6
20190419045808 70 189 0.0 8.0 0.00 0.01 0.00 49 1000.6
20190419045309 70 188 2.0 8.0 0.00 0.01 0.00 48 1000.7
20190419044811 69 184 1.0 7.0 0.00 0.01 0.00 50 1000.7
20190419044310 69 198 1.0 6.0 0.00 0.01 0.00 51 1000.8
20190419043813 69 202 0.0 6.0 0.00 0.01 0.00 52 1000.9
20190419035902 64 207 0.0 3.0 0.00 0.01 0.00 68 1001.1
20190419034828 64 191 0.0 3.0 0.00 0.01 0.00 72 1001.1
20190419034349 63 138 0.0 0.0 0.00 0.01 0.00 74 1001.1
20190419033331 63 243 0.0 0.0 0.00 0.01 0.00 76 1001.1
20190419032833 63 248 0.0 0.0 0.00 0.01 0.00 76 1001.1
20190419032316 63 248 0.0 0.0 0.00 0.01 0.00 75 1001.1
20190419031318 64 248 0.0 0.0 0.00 0.01 0.00 75 1002.2
20190419030820 64 248 0.0 0.0 0.00 0.01 0.00 75 1002.2
20190419030425 64 248 0.0 0.0 0.00 0.01 0.00 75 1002.2
20190419025900 64 248 0.0 0.0 0.00 0.01 0.00 74 1002.2
20190419024317 64 248 0.0 0.0 0.00 0.01 0.00 74 1002.2
20190419023815 64 248 0.0 0.0 0.00 0.01 0.00 73 1002.3
20190419023332 64 248 0.0 0.0 0.00 0.01 0.00 72 1002.3
20190419022813 65 248 0.0 0.0 0.00 0.01 0.00 72 1002.3
20190419022313 65 248 0.0 0.0 0.00 0.01 0.00 71 1002.3
20190419021852 65 248 0.0 0.0 0.00 0.01 0.00 71 1002.3
20190419021335 65 248 0.0 0.0 0.00 0.01 0.00 71 1002.3
20190419020815 65 248 0.0 0.0 0.00 0.01 0.00 71 1002.2
20190419020312 66 248 0.0 0.0 0.00 0.01 0.00 69 1002.2
20190419015828 66 248 0.0 0.0 0.00 0.01 0.00 68 1002.2
20190419015335 66 248 0.0 0.0 0.00 0.01 0.00 67 1002.3
20190419014838 67 248 0.0 0.0 0.00 0.01 0.00 67 1002.3
20190419014340 67 248 0.0 0.0 0.00 0.01 0.00 67 1002.3
20190419013810 67 248 0.0 0.0 0.00 0.01 0.00 67 1002.3
20190419013320 68 248 0.0 0.0 0.00 0.01 0.00 65 1002.3
20190419012826 68 248 0.0 0.0 0.00 0.01 0.00 64 1002.2
20190419012319 68 248 0.0 0.0 0.00 0.01 0.00 64 1002.3
20190419011817 68 248 0.0 0.0 0.00 0.01 0.00 63 1002.2
20190419011315 69 248 0.0 0.0 0.00 0.01 0.00 62 1002.3
20190419010813 69 248 0.0 0.0 0.00 0.01 0.00 62 1002.5
20190419010331 70 248 0.0 0.0 0.00 0.01 0.00 61 1002.5
20190419005848 71 248 0.0 0.0 0.00 0.01 0.00 59 1002.5
20190419005313 71 248 0.0 0.0 0.00 0.01 0.00 58 1002.5
20190419004815 71 248 0.0 0.0 0.00 0.01 0.00 58 1002.5
20190419004313 72 248 0.0 0.0 0.00 0.01 0.00 57 1002.4
20190419003810 72 248 0.0 0.0 0.00 0.01 0.00 56 1002.4
20190419003309 73 248 0.0 0.0 0.00 0.01 0.00 55 1002.4
20190419002812 73 248 0.0 0.0 0.00 0.01 0.00 54 1002.4
20190419002337 74 248 0.0 0.0 0.00 0.01 0.00 53 1002.4
20190419001311 74 248 0.0 0.0 0.00 0.01 0.00 52 1002.3
20190419000816 75 248 0.0 0.0 0.00 0.01 0.00 52 1002.3
20190419000312 75 248 0.0 0.0 0.00 0.01 0.00 51 1002.3
20190418235815 76 248 0.0 0.0 0.00 0.01 0.00 50 1002.3
20190418235310 76 248 0.0 0.0 0.00 0.01 0.00 50 1002.3
20190418234808 76 248 0.0 0.0 0.00 0.01 0.00 49 1002.3
20190418234307 76 248 0.0 0.0 0.00 0.01 0.00 49 1002.3
20190418233809 76 248 0.0 0.0 0.00 0.01 0.00 48 1002.3
20190418233308 77 247 0.0 0.0 0.00 0.01 0.00 48 1002.3
20190418232812 77 248 0.0 2.0 0.00 0.01 0.00 47 1002.3
20190418232310 77 251 0.0 7.0 0.00 0.01 0.00 47 1002.4
20190418231809 77 223 0.0 7.0 0.00 0.01 0.00 47 1002.3
20190418231321 77 226 1.0 7.0 0.00 0.01 0.00 47 1002.4
20190418230809 77 238 1.0 9.0 0.00 0.01 0.00 46 1002.4
20190418230309 78 231 1.0 9.0 0.00 0.01 0.00 46 1002.5
20190418225813 78 224 2.0 7.0 0.00 0.01 0.00 45 1002.5
20190418225317 78 233 0.0 5.0 0.00 0.01 0.00 45 1002.6
20190418224811 78 238 1.0 9.0 0.00 0.01 0.00 43 1002.6
20190418224313 78 209 1.0 9.0 0.00 0.01 0.00 44 1002.6
20190418223810 78 220 0.0 7.0 0.00 0.01 0.00 43 1002.5
20190418223309 78 214 2.0 8.0 0.00 0.01 0.00 43 1002.5
20190418222816 78 214 1.0 8.0 0.00 0.01 0.00 43 1002.5
20190418222311 79 206 1.0 12.0 0.00 0.01 0.00 42 1002.6
20190418221814 79 220 1.0 12.0 0.00 0.01 0.00 42 1002.3
20190418221310 79 251 2.0 12.0 0.00 0.01 0.00 41 1002.3
20190418220810 80 199 1.0 7.0 0.00 0.01 0.00 41 1002.3
20190418220309 80 245 1.0 7.0 0.00 0.01 0.00 40 1002.4
20190418215808 80 208 1.0 7.0 0.00 0.01 0.00 41 1002.4
20190418215308 80 195 1.0 12.0 0.00 0.01 0.00 41 1002.5
20190418214809 80 201 2.0 12.0 0.00 0.01 0.00 41 1002.8
20190418214315 80 232 1.0 12.0 0.00 0.01 0.00 41 1002.8
20190418213808 80 178 2.0 9.0 0.00 0.01 0.00 42 1002.8
20190418213313 79 212 0.0 12.0 0.00 0.01 0.00 41 1003.0
20190418212813 79 218 1.0 12.0 0.00 0.01 0.00 43 1003.0
20190418212311 78 204 3.0 12.0 0.00 0.01 0.00 42 1003.2
20190418211808 78 206 1.0 12.0 0.00 0.01 0.00 43 1003.5
20190418211318 78 219 1.0 12.0 0.00 0.01 0.00 43 1003.5
20190418210819 78 201 2.0 14.0 0.00 0.01 0.00 42 1003.5
20190418210327 78 254 2.0 14.0 0.00 0.01 0.00 42 1003.7
20190418205848 78 207 7.0 14.0 0.00 0.01 0.00 41 1003.7
20190418205316 78 230 3.0 14.0 0.00 0.01 0.00 41 1003.8
20190418204813 78 206 7.0 14.0 0.00 0.01 0.00 40 1004.1
20190418204308 78 192 4.0 14.0 0.00 0.01 0.00 40 1004.1
20190418203818 78 220 5.0 17.0 0.00 0.01 0.00 40 1004.1
20190418203309 78 197 5.0 17.0 0.00 0.01 0.00 39 1004.1
20190418202813 79 203 7.0 17.0 0.00 0.01 0.00 37 1004.2
20190418202307 79 215 5.0 20.0 0.00 0.01 0.00 38 1004.2
20190418201819 79 227 5.0 20.0 0.00 0.01 0.00 37 1004.4
20190418201308 79 214 5.0 20.0 0.00 0.01 0.00 38 1004.4
20190418200815 79 200 2.0 17.0 0.00 0.01 0.00 40 1004.4
20190418200307 79 193 3.0 17.0 0.00 0.01 0.00 39 1004.7
20190418195815 80 211 4.0 12.0 0.00 0.01 0.00 39 1004.7
20190418195311 80 236 3.0 16.0 0.00 0.01 0.00 40 1004.8
20190418194809 79 180 2.0 16.0 0.00 0.01 0.00 43 1004.8
20190418194309 79 206 5.0 16.0 0.00 0.01 0.00 41 1004.9
20190418193815 79 226 2.0 18.0 0.00 0.01 0.00 42 1004.9
20190418193308 80 246 3.0 18.0 0.00 0.01 0.00 42 1005.1
20190418192814 79 202 8.0 18.0 0.00 0.01 0.00 43 1005.1
20190418192311 78 215 6.0 16.0 0.00 0.01 0.00 43 1005.3
20190418191811 78 208 8.0 20.0 0.00 0.01 0.00 42 1005.3
20190418191313 78 198 5.0 20.0 0.00 0.01 0.00 42 1005.3
20190418190815 78 214 7.0 20.0 0.00 0.01 0.00 41 1005.5
20190418190308 79 215 7.0 20.0 0.00 0.01 0.00 41 1005.5
20190418185809 79 194 9.0 20.0 0.00 0.01 0.00 39 1005.5
20190418185308 80 235 7.0 20.0 0.00 0.01 0.00 42 1005.5
20190418184807 79 170 3.0 17.0 0.00 0.01 0.00 42 1005.5
20190418184307 79 184 6.0 17.0 0.00 0.01 0.00 43 1005.5
20190418183811 79 190 6.0 17.0 0.00 0.01 0.00 42 1005.6
20190418183307 79 173 3.0 18.0 0.00 0.01 0.00 43 1005.8
20190418182807 78 189 5.0 20.0 0.00 0.01 0.00 43 1005.9
20190418182308 78 174 7.0 20.0 0.00 0.01 0.00 43 1005.9
20190418181809 78 194 6.0 20.0 0.00 0.01 0.00 44 1005.9
20190418181307 78 186 7.0 20.0 0.00 0.01 0.00 46 1005.9
20190418180810 77 211 6.0 17.0 0.00 0.01 0.00 46 1005.9
20190418180307 76 206 2.0 17.0 0.00 0.01 0.00 47 1005.9
20190418175808 76 218 8.0 20.0 0.00 0.01 0.00 45 1005.9
20190418175309 77 207 4.0 20.0 0.00 0.01 0.00 47 1006.0
20190418174807 77 193 7.0 20.0 0.00 0.01 0.00 45 1006.1
20190418174306 77 190 9.0 20.0 0.00 0.01 0.00 45 1006.5
20190418173809 78 197 5.0 20.0 0.00 0.01 0.00 48 1006.5
20190418173312 77 208 2.0 20.0 0.00 0.01 0.00 47 1006.5
20190418172807 77 195 9.0 25.0 0.00 0.01 0.00 46 1006.5
20190418172311 77 181 7.0 25.0 0.00 0.01 0.00 47 1006.5
20190418171810 77 209 10.0 25.0 0.00 0.01 0.00 47 1006.5
20190418171311 77 191 6.0 20.0 0.00 0.01 0.00 48 1006.6
20190418170827 77 214 6.0 20.0 0.00 0.01 0.00 48 1006.6
20190418170313 77 212 4.0 17.0 0.00 0.01 0.00 49 1007.0
20190418165814 76 196 5.0 20.0 0.00 0.01 0.00 49 1007.0
20190418165311 76 234 6.0 20.0 0.00 0.01 0.00 50 1007.0
20190418164813 76 196 7.0 35.0 0.00 0.01 0.00 50 1007.1
20190418164318 75 200 9.0 35.0 0.00 0.01 0.00 51 1007.4
20190418163813 75 203 12.0 35.0 0.00 0.01 0.00 51 1007.4
20190418163315 75 214 11.0 26.0 0.00 0.01 0.00 53 1007.6
20190418162322 75 205 6.0 21.0 0.00 0.01 0.00 55 1008.0
20190418161847 74 193 6.0 26.0 0.00 0.01 0.00 55 1008.0
20190418161313 74 227 10.0 26.0 0.00 0.01 0.00 55 1008.0
20190418160814 73 217 6.0 26.0 0.00 0.01 0.00 56 1008.0
20190418160312 72 195 7.0 21.0 0.00 0.01 0.00 58 1008.0
20190418155812 72 198 10.0 20.0 0.00 0.01 0.00 58 1008.4
20190418155310 71 201 8.0 20.0 0.00 0.01 0.00 58 1008.4
20190418154810 71 202 7.0 18.0 0.00 0.01 0.00 59 1008.4
20190418154310 71 195 6.0 18.0 0.00 0.01 0.00 58 1008.3
20190418153813 71 202 9.0 18.0 0.00 0.01 0.00 58 1008.3
20190418153310 71 220 3.0 17.0 0.00 0.01 0.00 58 1008.5
20190418152813 71 197 7.0 17.0 0.00 0.01 0.00 57 1008.4
20190418152319 71 204 5.0 25.0 0.00 0.01 0.00 57 1008.4
20190418151812 71 207 6.0 25.0 0.00 0.01 0.00 57 1008.4
20190418151313 71 209 10.0 25.0 0.00 0.01 0.00 55 1008.4
20190418150816 72 207 7.0 20.0 0.00 0.01 0.00 55 1008.3
20190418150333 72 210 5.0 20.0 0.00 0.01 0.00 55 1007.8
20190418145816 73 237 8.0 20.0 0.00 0.01 0.00 55 1007.8
20190418145312 73 198 6.0 20.0 0.00 0.01 0.00 54 1007.8
20190418144809 73 229 4.0 18.0 0.00 0.01 0.00 54 1007.8
20190418144310 73 202 4.0 24.0 0.00 0.01 0.00 55 1007.8
20190418143810 73 228 8.0 24.0 0.00 0.01 0.00 54 1007.8
20190418143309 73 220 7.0 21.0 0.00 0.01 0.00 54 1007.8
20190418142809 73 204 9.0 21.0 0.00 0.01 0.00 53 1008.0
20190418142312 73 207 3.0 20.0 0.00 0.01 0.00 55 1008.0
20190418141810 73 226 7.0 20.0 0.00 0.01 0.00 54 1008.0
20190418141310 73 208 5.0 16.0 0.00 0.01 0.00 53 1008.0
20190418140811 72 254 4.0 16.0 0.00 0.01 0.00 54 1008.0
20190418140310 72 242 5.0 13.0 0.00 0.01 0.00 53 1008.0
20190418135810 71 215 4.0 17.0 0.00 0.01 0.00 53 1008.1
20190418135313 71 226 3.0 17.0 0.00 0.01 0.00 54 1008.1
20190418134810 71 231 6.0 17.0 0.00 0.01 0.00 52 1008.0
20190418134312 71 212 2.0 16.0 0.00 0.01 0.00 52 1008.0
20190418133810 70 216 3.0 16.0 0.00 0.01 0.00 53 1008.0
20190418133311 70 206 2.0 12.0 0.00 0.01 0.00 53 1008.0
20190418132808 69 201 3.0 12.0 0.00 0.01 0.00 52 1008.2
20190418132310 69 212 2.0 12.0 0.00 0.01 0.00 54 1008.2
20190418131811 68 252 2.0 12.0 0.00 0.01 0.00 53 1008.1
20190418131310 68 180 2.0 12.0 0.00 0.01 0.00 54 1008.0
20190418130810 68 196 4.0 12.0 0.00 0.01 0.00 53 1008.0
20190418130309 67 208 1.0 9.0 0.00 0.01 0.00 55 1008.0
20190418125811 67 169 2.0 9.0 0.00 0.01 0.00 55 1008.4
20190418125314 67 199 2.0 9.0 0.00 0.01 0.00 55 1008.4
20190418124809 67 212 0.0 6.0 0.00 0.01 0.00 56 1008.4
20190418124310 67 215 0.0 3.0 0.00 0.01 0.00 55 1008.4
20190418123810 66 182 0.0 3.0 0.00 0.01 0.00 56 1008.4
20190418123312 66 179 0.0 5.0 0.00 0.01 0.00 58 1008.5
20190418122814 66 176 0.0 5.0 0.00 0.01 0.00 57 1008.4
20190418122309 65 198 0.0 6.0 0.00 0.01 0.00 58 1008.4
20190418121815 65 165 0.0 6.0 0.00 0.01 0.00 59 1008.1
20190418121309 65 200 1.0 6.0 0.00 0.01 0.00 58 1008.1
20190418120809 64 147 0.0 5.0 0.00 0.01 0.00 59 1008.1
20190418120311 64 163 0.0 5.0 0.00 0.01 0.00 58 1007.9
20190418115813 64 188 0.0 5.0 0.00 0.01 0.00 59 1008.2
20190418115310 64 186 0.0 6.0 0.00 0.01 0.00 60 1008.3
20190418114811 63 185 0.0 6.0 0.00 0.01 0.00 60 1008.3
20190418114309 63 192 1.0 5.0 0.00 0.01 0.00 60 1008.3
20190418113809 63 193 1.0 6.0 0.00 0.01 0.00 60 1008.2
20190418113311 63 193 1.0 8.0 0.00 0.01 0.00 60 1008.2
20190418112810 63 195 2.0 8.0 0.00 0.01 0.00 60 1008.1
20190418112316 62 200 2.0 8.0 0.00 0.01 0.00 61 1008.1
20190418111814 62 196 1.0 6.0 0.00 0.01 0.00 61 1007.9
20190418111310 62 192 0.0 6.0 0.00 0.01 0.00 61 1007.9
20190418110812 62 200 2.0 6.0 0.00 0.01 0.00 60 1007.9
20190418110312 62 192 1.0 5.0 0.00 0.01 0.00 61 1007.7
20190418105812 62 165 0.0 5.0 0.00 0.01 0.00 60 1007.9
20190418105310 62 184 0.0 7.0 0.00 0.01 0.00 61 1007.9
20190418104811 62 212 1.0 7.0 0.00 0.01 0.00 60 1007.9
20190418104315 62 202 1.0 7.0 0.00 0.01 0.00 61 1007.8
20190418103813 62 175 1.0 7.0 0.00 0.01 0.00 61 1007.8
20190418103313 62 181 0.0 5.0 0.00 0.01 0.00 62 1007.8
20190418102815 61 175 1.0 5.0 0.00 0.01 0.00 63 1007.7
20190418102314 61 202 1.0 6.0 0.00 0.01 0.00 63 1007.7